TimeBST,TemperatureF,Dew PointF,Humidity,Sea Level PressureIn,VisibilityMPH,Wind Direction,Wind SpeedMPH,Gust SpeedMPH,PrecipitationIn,Events,Conditions,WindDirDegrees,DateUTC
12:20 AM,62.6,53.6,72,30.21,6.2,WNW,2.3,-,N/A,,Partly Cloudy,300,2013-08-28 23:20:00
12:50 AM,62,54,67,30.20,13,WSW,3.5,,,,,250,2013-08-28 23:50:00
12:50 AM,60.8,53.6,77,30.21,-9999.0,South,4.6,-,N/A,,Clear,170,2013-08-28 23:50:00
1:20 AM,60.8,55.4,82,30.18,-9999.0,SW,3.5,-,N/A,,Clear,220,2013-08-29 00:20:00
1:50 AM,60.8,53.6,77,30.18,6.2,SW,4.6,-,N/A,,Partly Cloudy,220,2013-08-29 00:50:00
2:20 AM,60.8,53.6,77,30.18,-9999.0,WSW,4.6,-,N/A,,Clear,240,2013-08-29 01:20:00
2:50 AM,59.0,55.4,88,30.18,6.2,West,4.6,-,N/A,,Unknown,280,2013-08-29 01:50:00
3:20 AM,60.8,55.4,82,30.21,6.2,West,5.8,-,N/A,,Unknown,280,2013-08-29 02:20:00
3:50 AM,59,55,83,30.19,6,SW,3.5,,,,,220,2013-08-29 02:50:00
3:50 AM,59.0,55.4,88,30.18,6.2,SW,3.5,-,N/A,,Unknown,230,2013-08-29 02:50:00
4:20 AM,59.0,55.4,88,30.18,5.6,SSW,4.6,-,N/A,,Unknown,210,2013-08-29 03:20:00
4:50 AM,59.0,55.4,88,30.18,5.6,WSW,4.6,-,N/A,,Partly Cloudy,240,2013-08-29 03:50:00
5:20 AM,59.0,55.4,88,30.18,4.3,West,5.8,-,N/A,,Partly Cloudy,270,2013-08-29 04:20:00
5:50 AM,59.0,55.4,88,30.18,3.7,West,6.9,-,N/A,,Unknown,270,2013-08-29 04:50:00
6:20 AM,59.0,55.4,88,30.18,3.1,West,6.9,-,N/A,,Haze,270,2013-08-29 05:20:00
6:50 AM,59,55,83,30.21,4,West,5.8,,,,Light Haze,280,2013-08-29 05:50:00
6:50 AM,59.0,55.4,88,30.21,3.1,West,6.9,-,N/A,,Haze,280,2013-08-29 05:50:00
7:20 AM,59.0,55.4,88,30.21,4.3,West,5.8,-,N/A,,Scattered Clouds,280,2013-08-29 06:20:00
7:50 AM,60.8,55.4,82,30.21,5.6,West,5.8,-,N/A,,Scattered Clouds,260,2013-08-29 06:50:00
8:20 AM,60.8,55.4,82,30.21,6.2,West,5.8,-,N/A,,Scattered Clouds,270,2013-08-29 07:20:00
8:50 AM,62.6,53.6,72,30.21,6.2,West,5.8,-,N/A,,Partly Cloudy,260,2013-08-29 07:50:00
9:20 AM,64.4,53.6,68,30.21,-9999.0,WNW,5.8,-,N/A,,Clear,290,2013-08-29 08:20:00
9:50 AM,66,52,51,30.20,14,WSW,3.5,,,,,250,2013-08-29 08:50:00
9:50 AM,66.2,53.6,64,30.21,6.2,West,4.6,-,N/A,,Partly Cloudy,280,2013-08-29 08:50:00
10:20 AM,68.0,51.8,56,30.18,6.2,WSW,8.1,-,N/A,,Partly Cloudy,250,2013-08-29 09:20:00
10:50 AM,69.8,51.8,53,30.18,6.2,West,6.9,-,N/A,,Partly Cloudy,270,2013-08-29 09:50:00
11:20 AM,69.8,51.8,53,30.18,6.2,West,8.1,-,N/A,,Partly Cloudy,260,2013-08-29 10:20:00
11:50 AM,71.6,51.8,50,30.18,6.2,West,8.1,-,N/A,,Partly Cloudy,260,2013-08-29 10:50:00
12:20 PM,71.6,51.8,50,30.18,6.2,West,9.2,-,N/A,,Partly Cloudy,260,2013-08-29 11:20:00
12:50 PM,73,52,36,30.18,18,West,11.5,,,,Scattered Clouds,280,2013-08-29 11:50:00
12:50 PM,73.4,51.8,47,30.18,6.2,West,10.4,-,N/A,,Partly Cloudy,280,2013-08-29 11:50:00
1:20 PM,75.2,51.8,44,30.18,6.2,West,12.7,-,N/A,,Partly Cloudy,280,2013-08-29 12:20:00
1:50 PM,73.4,51.8,47,30.18,6.2,West,10.4,-,N/A,,Partly Cloudy,280,2013-08-29 12:50:00
2:20 PM,75.2,51.8,44,30.15,6.2,West,11.5,-,N/A,,Partly Cloudy,280,2013-08-29 13:20:00
2:50 PM,73.4,50.0,44,30.15,6.2,WSW,12.7,-,N/A,,Scattered Clouds,250,2013-08-29 13:50:00
3:20 PM,73.4,51.8,47,30.15,6.2,West,9.2,-,N/A,,Partly Cloudy,280,2013-08-29 14:20:00
3:50 PM,76,52,32,30.15,19,West,11.5,,,,Scattered Clouds,260,2013-08-29 14:50:00
3:50 PM,75.2,51.8,44,30.15,-9999.0,West,12.7,-,N/A,,Clear,270,2013-08-29 14:50:00
4:20 PM,75.2,50.0,41,30.15,6.2,WSW,11.5,-,N/A,,Partly Cloudy,250,2013-08-29 15:20:00
4:50 PM,73.4,53.6,50,30.12,6.2,West,11.5,-,N/A,,Partly Cloudy,280,2013-08-29 15:50:00
5:20 PM,73.4,55.4,53,30.12,6.2,WNW,11.5,-,N/A,,Partly Cloudy,290,2013-08-29 16:20:00
5:50 PM,73.4,53.6,50,30.12,6.2,West,10.4,-,N/A,,Partly Cloudy,270,2013-08-29 16:50:00
6:20 PM,73.4,53.6,50,30.12,6.2,West,12.7,-,N/A,,Partly Cloudy,280,2013-08-29 17:20:00
6:50 PM,72,56,47,30.14,16,WSW,10.4,,,,Scattered Clouds,250,2013-08-29 17:50:00
6:50 PM,71.6,55.4,57,30.12,6.2,West,11.5,-,N/A,,Partly Cloudy,270,2013-08-29 17:50:00
7:20 PM,71.6,55.4,57,30.12,6.2,West,10.4,-,N/A,,Partly Cloudy,270,2013-08-29 18:20:00
7:50 PM,69.8,55.4,60,30.12,6.2,West,10.4,-,N/A,,Partly Cloudy,270,2013-08-29 18:50:00
8:20 PM,69.8,55.4,60,30.15,6.2,West,9.2,-,N/A,,Partly Cloudy,270,2013-08-29 19:20:00
8:50 PM,68.0,57.2,68,30.15,6.2,West,9.2,-,N/A,,Partly Cloudy,280,2013-08-29 19:50:00
9:20 PM,66.2,57.2,73,30.15,6.2,West,6.9,-,N/A,,Partly Cloudy,280,2013-08-29 20:20:00
9:50 PM,66,57,64,30.16,17,WSW,8.1,,,,,250,2013-08-29 20:50:00
9:50 PM,68.0,57.2,68,30.15,-9999.0,WSW,10.4,-,N/A,,Clear,250,2013-08-29 20:50:00
10:20 PM,66.2,57.2,73,30.15,-9999.0,West,9.2,-,N/A,,Clear,270,2013-08-29 21:20:00
10:50 PM,64.4,57.2,77,30.15,-9999.0,West,9.2,-,N/A,,Clear,270,2013-08-29 21:50:00
11:20 PM,62.6,57.2,82,30.15,-9999.0,SW,9.2,-,N/A,,Clear,230,2013-08-29 22:20:00
11:50 PM,62.6,57.2,82,30.15,-9999.0,SW,5.8,-,N/A,,Clear,220,2013-08-29 22:50:00